User: anonymous   Login
Location: Unnamed Road
(35.9029°N, 51.9749°E)
Time: 12:25:06
(UTC+04:30)
Language:

Vanguard 2 Rocket - Orbit

View from above orbital plane
View from above orbital plane
View from above satellite
View from above satellite

Ground track
Ground track

The orbit data is extracted from the following two-line orbital elements,

1    12U 59001B   20145.82699591 -.00000049 +00000-0 -42808-4 0  9990
2    12 032.9088 073.5989 1665273 311.6887 035.2443 11.44292257519845
Epoch (UTC): 24 May 2020 19:50:52
Eccentricity: 0.1665273
inclination: 32.9088°
perigee height: 555 km
apogee height: 3325 km
right ascension of ascending node: 73.5989°
argument of perigee: 311.6887°
revolutions per day: 11.44292257
mean anomaly at epoch: 35.2443°
orbit number at epoch: 51984

The dashed part of the orbit path shows where the satellite is in the earth's shadow,  

DLR